Location: Unspecified
(33.0284°N, 0.0000°E)
Time: 02:52:47
(UTC+00:00)

Meteor 1-27 Rocket - Visible Passes

Search period start: 04 April 2026 00:00
Search period end: 14 April 2026 00:00
Orbit: 830 x 908 km, 81.3° (Epoch: 29 March)

Date Brightness Start Highest point End Pass type
(mag) Time Alt. Az. Time Alt. Az. Time Alt. Az.
4 Apr 6.3 03:59:30 10° SE 04:03:38 21° E 04:07:50 10° NE visible
5 Apr 6.2 03:52:44 10° SE 03:56:57 21° E 04:01:13 10° NE visible
6 Apr 6.2 03:45:58 10° SE 03:50:16 22° E 03:54:37 10° NE visible
7 Apr 6.1 03:39:13 10° SE 03:43:34 22° E 03:47:59 10° NE visible
8 Apr 6.0 03:32:28 10° SE 03:36:52 23° E 03:41:22 10° NE visible
9 Apr 6.0 03:25:42 10° SE 03:30:11 24° E 03:34:44 10° NE visible
9 Apr 4.4 05:07:50 10° SW 05:13:10 37° WNW 05:18:37 10° N visible
10 Apr 5.9 03:18:57 10° SE 03:23:30 24° E 03:28:06 10° NE visible
10 Apr 4.4 05:01:11 10° SW 05:06:29 37° WNW 05:11:55 10° N visible
11 Apr 5.8 03:12:12 10° SE 03:16:49 25° E 03:21:28 10° NE visible
11 Apr 4.4 04:54:31 10° SW 04:59:49 36° WNW 05:05:13 10° N visible
12 Apr 5.8 03:05:28 10° SE 03:10:07 25° E 03:14:50 10° NE visible
12 Apr 4.5 04:47:53 10° SW 04:53:09 35° WNW 04:58:31 10° NNW visible
13 Apr 5.7 02:58:42 10° SE 03:03:26 26° E 03:08:12 10° NE visible
13 Apr 4.5 04:41:14 10° SW 04:46:29 34° WNW 04:51:50 10° NNW visible
